284  
ASUS43 KIWX 211210  
RWRIWX  
 
KIWX WEATHER ROUNDUP  
NATIONAL WEATHER SERVICE NORTHERN INDIANA  
800 AM EDT THU SEP 21 2017  
 
NOTE: "FAIR" INDICATES FEW OR NO CLOUDS BELOW 12,000 FEET WITH NO  
SIGNIFICANT WEATHER AND/OR S TO VISIBILITY
.  
 
* THESE STATIONS ARE NOT UNDER NWS QUALITY CONTROL. THEY ALSO MAY NOT  
REPORT WEATHER SUCH AS PRECIPITATION OR FOG.
 
 
INZ001>027-211300-  
NORTHERN INDIANA  
 
CITY SKY/WX TMP DP RH WIND PRES REMARKS
 
GARY* MOCLDY 73 70 88 CALM 29.99S  
VALPARAISO PTCLDY 70 68 93 SE5 30.02S FOG  
6HR MIN TEMP: 70; 6HR MAX TEMP: 75;  
 
LAPORTE* CLEAR 68 67 97 CALM 30.03S FOG  
6HR MIN TEMP: 67; 6HR MAX TEMP: 71;  
 
KNOX* PTCLDY 70 68 94 S3 30.02S  
SOUTH BEND CLOUDY 70 70 100 CALM 30.03S  
6HR MIN TEMP: 67; 6HR MAX TEMP: 72;  
 
ELKHART* CLOUDY 70 68 94 CALM 30.03S FOG  
GOSHEN CLEAR 71 67 87 SE6 30.04S FOG  
6HR MIN TEMP: 70; 6HR MAX TEMP: 73;  
 
MONTICELLO* PTCLDY 68 67 96 E3 30.03R FOG  
6HR MIN TEMP: 68; 6HR MAX TEMP: 74;  
 
LOGANSPORT* PTCLDY 68 68 100 E5 30.06R FOG  
ROCHESTER* PTCLDY 73 72 94 SE5 30.05R  
WARSAW* PTCLDY 70 70 100 CALM 30.05S FOG  
AUBURN* N/A 68 64 88 CALM 30.08S FOG  
FORT WAYNE CLOUDY 68 66 93 S6 30.07S  
6HR MIN TEMP: 67; 6HR MAX TEMP: 70;  
 
HUNTINGTON* PTCLDY 69 68 96 S5 30.07S FOG  
6HR MIN TEMP: 68; 6HR MAX TEMP: 71;  
 
PERU/GRISSOM CLOUDY 70 70 100 SE6 30.05S  
6HR MIN TEMP: 69; 6HR MAX TEMP: 71; 6HR PCP: TRACE;  
 

 
INZ028>050-211300-  
CENTRAL INDIANA  
 
CITY SKY/WX TMP DP RH WIND PRES REMARKS
 
LAFAYETTE CLOUDY 69 69 100 CALM 30.03R  
6HR MIN TEMP: 68; 6HR MAX TEMP: 72;  
 
KOKOMO* PTCLDY 69 68 96 SE5 30.07R FOG  
6HR MIN TEMP: 68; 6HR MAX TEMP: 71;  
 
MUNCIE* PTCLDY 73 68 84 S6 30.08S  
6HR MIN TEMP: 73; 6HR MAX TEMP: 74;  
 
INDIANAPOLIS CLOUDY 70 69 97 SE6 30.07R  
6HR MIN TEMP: 70; 6HR MAX TEMP: 74;  
 

 
MIZ043>046-050>051-056>058-064>065-071>073-077>080-211300-  
SOUTHWEST LOWER MICHIGAN  
 
CITY SKY/WX TMP DP RH WIND PRES REMARKS
 
BATTLE CREEK PTCLDY 71 69 93 S7 30.05R  
6HR MIN TEMP: 70; 6HR MAX TEMP: 73;  
 
BENTON HARBOR CLOUDY 72 67 84 S7 30.00S  
6HR MIN TEMP: 70; 6HR MAX TEMP: 75;  
 
COLDWATER* CLOUDY 70 70 100 CALM 30.06R FOG  
6HR MIN TEMP: 68; 6HR MAX TEMP: 71;  
 
HILLSDALE* CLOUDY 64 64 100 S3 30.07R FOG  
HOLLAND CLOUDY 69 66 90 SE3 30.00R  
6HR MIN TEMP: 68; 6HR MAX TEMP: 74;  
 
GRAND RAPIDS CLOUDY 70 68 93 S3 30.01R  
6HR MIN TEMP: 68; 6HR MAX TEMP: 73;  
 
KALAMAZOO CLEAR 71 67 87 S7 30.04R FOG  
6HR MIN TEMP: 70; 6HR MAX TEMP: 73;  
 
STURGIS* PTCLDY 70 69 96 S5 30.04S FOG  
6HR MIN TEMP: 69; 6HR MAX TEMP: 73;  
 
THREE RIVERS* FAIR 71 69 96 S3 30.04S FOG  
6HR MIN TEMP: 70; 6HR MAX TEMP: 73;  
 

 
OHZ001>008-015>018-024>025-211300-  
NORTHWEST OHIO  
 
CITY SKY/WX TMP DP RH WIND PRES REMARKS
 
WAUSEON* FAIR 68 68 100 S5 30.07S FOG  
DEFIANCE CLEAR 69 66 90 VRB3 30.07S FOG  
6HR MIN TEMP: 65; 6HR MAX TEMP: 69;  
 
FINDLAY CLEAR 68 64 87 S5 30.08R FOG  
6HR MIN TEMP: 68; 6HR MAX TEMP: 71;  
 
TOLEDO EXPRESS CLEAR 66 66 100 S5 30.07S FOG  
6HR MIN TEMP: 64; 6HR MAX TEMP: 66;  
 
TOLEDO METCALF CLEAR 68 66 93 CALM 30.08R FOG  
6HR MIN TEMP: 66; 6HR MAX TEMP: 68;  
 
LIMA CLEAR 68 67 96 S3 30.10R  
6HR MIN TEMP: 65; 6HR MAX TEMP: 69;  
 

 
AND FOR LAKE MICHIGAN COASTAL AND OPEN LAKE BUOY OBSERVATIONS  
 
STATION/POSITION TEMP WIND PRES VSBY WAVE
 
AIR SEA DIR/SP/G HT/PER  
(F) (DEG/KT/KT) (MB) (MI) (FT/S)  
CALUMET HARBOR 73 170/ 5/ 7 1014.5R  
MICHIGAN CITY 73 160/ 9/ 11 N/A  
BURNS HARBOR 74 180/ 8/ 11 1015.9S  
SAINT JOSEPH 72 130/ 3/ 5 1016.9  
SOUTH LAKE BUOY 70 69 200/ 8/ 10 1015.0R 1/ 3  
4 MI NW BRIDGMAN 71 69 190/ 8/ 10 1015.6 1/ 2  
MICHIGAN CITY 71 69 170/ 8/ 8 N/A 0  
 

 

 
 
 
CLICK HERE TO GO TO PREVIOUS BULLETINS.

The Nexlab IN Page
The Nexlab OH Page
The Nexlab MI Page Main Text Page